Location: Bratsk-Energetik
(56.3300°N, 101.7600°E)
Time: 13:20:55
(UTC+08:00)

ISS - Pass Details

Date: 27 May 2017
Orbit: 401 x 408 km, 51.6° (Epoch: 27 June)

Event Time Altitude Azimuth Distance (km) Brightness Sun altitude
Rises 23:49:48 0° 252° (WSW) 2,338 0.1 -10.4°
Reaches altitude 10° 23:51:58 10° 244° (WSW) 1,476 -1.1 -10.5°
Maximum altitude 23:55:02 36° 176° (S) 673 -3.2 -10.7°
Drops below altitude 10° 23:58:06 10° 108° (ESE) 1,473 -1.3 -10.8°
Sets 00:00:16 0° 100° (E) 2,332 -0.2 -10.9°
